Location: Asheville, NC
(35.6000°N, 82.5500°W)
Time: 19:37:24
(UTC-04:00)

Vanguard 3 - Pass Details

Date: 10 March 2018
Orbit: 508 x 3264 km, 33.3° (Epoch: 23 June)

Event Time Altitude Azimuth Distance (km) Brightness Sun altitude
Rises 05:51:26 0° 190° (S) 6,974 11.8 -12.3°
Reaches altitude 10° 05:58:23 10° 175° (S) 6,150 11.6 -10.9°
Maximum altitude 06:10:09 19° 138° (SE) 5,353 11.9 -8.5°
Drops below altitude 10° 06:20:56 10° 101° (E) 5,681 13.1 -6.3°
Sets 06:26:45 0° 86° (E) 6,305 14.4 -5.1°
